カタログに戻る

STARLINK-4630

運用中通信SSO
NORAD 53680·PAYLOAD·🇺🇸 United States

打ち上げ Aug 31, 2022 から Vandenberg Space Force Base

Loading…

次のパス (今後24時間)

TLE

最新Source: CelesTrak SupGP

元期: Sep 15, 2026, 01:24 UTC

1 53680C 22105AJ  26258.05881944  .00081653  00000+0  25353-2 0  2584
2 53680  97.2843 134.9295 0001935  92.4511 220.1184 15.33389682    17

AllMySatでSTARLINK-4630をリアルタイム追跡

Download on the App Store